Flag for Germany Weather past 2 weeks in Höxter, North Rhine-Westphalia, Germany

Now
34 °F

Low clouds.


Feels Like: 31 °F
Forecast: 27 / 35 °F
Wind: 3 mph from West

Location: Bad Lippspringe

Current Time: Dec 26, 2014 at 5:32:49 AM

Latest Report: Dec 26, 2014 at 5:00 AM


Visibility: 6 mi

Pressure: 30.37 "Hg

Humidity: 96%

Dew point: 33 °F

Location of HöxterLocation

Historic Weather in Höxter — Graph

°F

Höxter temperature yesterday

Maximum temperature yesterday: 41 °F (at 3:00 PM)
Minimum temperature yesterday: 36 °F (at 11:00 PM)
Average temperature yesterday: 39 °F

Past Weeks' High & Low Weather Summary

 TemperatureHumidityPressure
High53 °F (Dec 18, 8:00 PM)99% (Dec 17, 5:00 PM)30.36 "Hg (Dec 17, 5:00 PM)
Low35 °F (Dec 26, 3:00 AM)70% (Dec 24, 4:00 AM)29.54 "Hg (Dec 12, 9:00 AM)
Average44 °F88%29.96 "Hg
* Reported Dec 11 4:00 AM — Dec 26 4:00 AM, Höxter, Weather by CustomWeather, © 2014

Note: Actual official high and low records may vary slightly from our data, if they occured in-between our weather recording intervals... More about our weather records

Advertising

Höxter weather history for previous 24 hours

 ConditionsComfort  
Time TempWeatherWind HumidityBarometerVisibility
4:00 AM
Dec 26
35 °FLow clouds.2 mph96%30.36 "Hg6 mi
3:00 AM35 °FLow clouds.2 mph95%30.36 "Hg7 mi
2:00 AM35 °FDrizzle. Low clouds.3 mph96%30.34 "Hg5 mi
1:00 AM35 °FLow clouds.6 mph95%30.33 "Hg8 mi
12:00 AM36 °FLight rain. Low clouds.3 mph92%30.32 "Hg2 mi
11:00 PM
Dec 25
36 °FOvercast.3 mph88%30.31 "Hg19 mi
10:00 PM37 °FOvercast.3 mph86%30.30 "Hg22 mi
9:00 PM38 °FOvercast.5 mph81%30.28 "Hg40 mi
8:00 PM38 °FOvercast.5 mph85%30.25 "Hg19 mi
7:00 PM39 °FOvercast.6 mph84%30.23 "Hg19 mi
6:00 PM39 °FPassing clouds.6 mph86%30.20 "Hg18 mi
5:00 PM38 °FLight rain. Overcast.9 mph83%30.18 "Hg12 mi
4:00 PM40 °FScattered clouds.6 mph81%30.17 "Hg22 mi
3:00 PM41 °FOvercast.7 mph86%30.15 "Hg17 mi
2:00 PM40 °FOvercast.6 mph89%30.15 "Hg14 mi
1:00 PM40 °FOvercast.7 mph90%30.14 "Hg11 mi
12:00 PM40 °FOvercast.7 mph91%30.14 "Hg9 mi
11:00 AM40 °FLight freezing rain. Overcast.9 mph87%30.14 "Hg9 mi
10:00 AM40 °FOvercast.8 mph86%30.12 "Hg14 mi
9:00 AM40 °FOvercast.8 mph85%30.11 "Hg17 mi
8:00 AM39 °FOvercast.7 mph84%30.10 "Hg19 mi
7:00 AM39 °FOvercast.8 mph83%30.10 "Hg22 mi
6:00 AM40 °FOvercast.7 mph82%30.09 "Hg25 mi
5:00 AM40 °FOvercast.7 mph81%30.09 "Hg25 mi
Weather by CustomWeather, © 2014

See weather overviewHow to use our weather pages